Location: Newark
(51.0500°N, 12.4500°E)
Time: 13:08:31
(UTC+00:00)

Transit 2A Rocket - Visible Passes

Search period start: 17 February 2020 00:00
Search period end: 27 February 2020 00:00
Orbit: 592 x 911 km, 66.7° (Epoch: 16 February)

Date Brightness Start Highest point End Pass type
(mag) Time Alt. Az. Time Alt. Az. Time Alt. Az.
17 Feb 7.2 03:21:23 12° N 03:22:08 12° N 03:24:07 10° NNE visible
17 Feb 6.9 05:02:54 10° NNW 05:06:33 21° NNE 05:10:25 10° ENE visible
18 Feb 7.4 02:39:49 12° N 02:39:49 12° N 02:41:03 10° NNE visible
18 Feb 7.1 04:20:28 10° NNW 04:23:34 17° NNE 04:26:50 10° ENE visible
19 Feb 7.8 01:58:15 10° NNE 01:58:15 10° NNE 01:58:18 10° NNE visible
19 Feb 7.2 03:38:08 11° NNW 03:40:31 14° NNE 03:43:11 10° NE visible
19 Feb 6.4 05:20:06 10° NNW 05:24:32 33° NE 05:29:20 10° ESE visible
20 Feb 7.3 02:56:34 12° N 02:57:25 13° N 02:59:37 10° NE visible
20 Feb 6.8 04:37:40 10° NNW 04:41:42 25° NNE 04:45:59 10° E visible
21 Feb 7.5 02:15:00 12° N 02:15:00 12° N 02:16:19 10° NNE visible
21 Feb 7.1 03:55:15 10° NNW 03:58:46 19° NNE 04:02:28 10° ENE visible
22 Feb 7.2 03:13:21 12° NNW 03:15:45 16° NNE 03:18:51 10° ENE visible
22 Feb 6.2 04:54:53 10° NNW 04:59:35 41° NE 05:04:42 10° ESE visible
23 Feb 7.3 02:31:48 13° N 02:32:41 14° NNE 02:35:14 10° NE visible
23 Feb 6.6 04:12:27 10° NNW 04:16:48 30° NE 04:21:29 10° E visible
24 Feb 7.6 01:50:16 12° NNE 01:50:16 12° NNE 01:51:45 10° NNE visible
24 Feb 7.0 03:30:09 11° NNW 03:33:56 23° NNE 03:38:05 10° E visible
24 Feb 5.2 05:12:10 10° NW 05:17:14 76° NE 05:22:47 10° SE visible
25 Feb 7.2 02:48:39 14° N 02:50:58 18° NNE 02:54:31 10° ENE visible
25 Feb 5.8 04:29:41 10° NNW 04:34:36 52° NE 04:39:58 10° ESE visible
26 Feb 7.4 02:07:09 15° N 02:07:55 15° NNE 02:10:54 10° NE visible
26 Feb 6.4 03:47:14 10° NNW 03:51:52 36° NE 03:56:53 10° ESE visible
